Temperature
29 30 30 30 30 30 30 30 31 31 31 30 30 29 27 26 25 25 24 23 22 22 21 20 20 19 19 19 19 18 18 17 17 17 17 17 16 16 16 16 16 16 15 15
28 29 29 29 30 29 29 30 30 30 30 30 29 28 27 26 25 24 23 23 22 21 20 20 19 19 19 19 19 18 18 18 17 17 17 17 16 16 16 16 16 15 15 15
28 28 28 28 29 29 29 30 30 29 30 29 28 27 26 25 24 23 23 22 21 20 20 19 19 19 19 19 18 18 18 17 17 17 17 16 16 16 16 16 15 15 15 15
28 27 26 28 29 29 29 29 29 28 28 28 27 26 25 24 23 23 22 21 21 20 20 19 19 19 19 19 18 18 17 17 17 17 16 16 16 16 15 15 15 15 15 14
27 27 27 27 28 28 28 28 28 28 27 26 25 25 25 23 22 22 21 20 20 20 19 19 19 19 19 18 18 18 17 17 17 17 16 16 16 15 15 15 15 15 14 14
26 26 26 27 28 27 27 27 27 26 26 25 25 27 26 22 21 21 20 20 20 19 19 19 19 19 18 18 18 18 17 17 17 16 16 15 15 15 15 15 15 14 14 14
25 25 27 27 26 26 26 26 25 25 24 24 24 24 22 20 20 19 19 19 19 19 18 19 18 18 18 18 18 17 17 16 16 16 16 15 15 15 15 15 14 14 13 13
25 25 26 25 26 26 25 23 23 23 23 22 22 21 20 19 19 19 19 18 18 18 18 18 18 18 18 17 17 16 16 16 16 16 15 15 15 15 14 14 14 13 13 13
25 25 23 23 23 22 22 22 22 22 21 21 20 19 19 18 18 18 18 18 18 18 18 18 18 17 17 17 17 16 16 16 16 15 15 15 14 14 14 14 13 13 13 13
23 23 22 22 21 21 21 21 21 20 20 20 19 19 18 18 18 18 18 18 17 17 17 17 17 17 17 17 16 16 16 15 15 15 15 14 14 14 14 13 13 13 13 12
22 22 21 21 20 20 19 20 20 19 19 19 19 18 18 17 17 17 17 17 17 17 17 16 16 16 16 16 16 15 15 15 15 14 14 14 14 14 13 13 13 12 12 12
22 21 21 20 19 19 19 19 19 19 19 18 18 18 17 17 17 17 17 16 16 16 16 16 16 16 16 16 15 15 15 14 14 14 14 13 13 13 13 13 12 12 12 11
19 19 19 18 18 18 18 18 18 18 18 17 17 17 16 16 16 16 16 16 16 16 16 16 15 15 15 15 15 15 15 14 14 14 14 13 13 13 12 12 12 11 11 11
17 17 18 17 17 17 17 17 17 17 17 16 16 16 16 16 16 16 16 16 16 16 15 15 15 15 15 15 14 14 14 14 14 14 13 13 13 12 12 12 11 11 11 11
16 16 17 16 16 16 16 16 16 16 16 16 16 15 15 15 15 15 15 15 15 15 15 15 14 14 14 14 14 14 14 13 13 13 13 13 12 12 12 11 11 11 11 10
15 16 16 16 16 15 16 16 15 15 15 15 15 15 15 15 15 14 14 14 14 15 14 14 14 14 14 13 13 13 13 13 13 13 13 12 12 12 12 11 11 11 10 10
15 16 16 15 15 15 15 15 15 15 15 15 15 15 14 14 14 14 14 14 14 14 14 13 13 13 13 13 13 13 13 13 13 12 12 12 12 12 11 11 11 10 10 10
15 15 15 15 15 15 15 15 14 14 14 14 14 14 14 14 14 14 13 13 13 13 13 13 13 13 13 13 13 13 13 13 12 12 12 11 11 11 11 11 11 10 10 10
15 15 15 14 14 14 14 14 14 14 14 14 14 13 13 14 13 13 13 13 13 13 13 13 13 12 12 13 12 12 12 12 12 12 11 11 11 11 11 11 10 10 10 10
14 14 14 14 14 14 14 14 14 13 14 14 13 13 13 13 13 13 12 12 13 13 13 12 12 12 12 12 12 12 12 12 12 11 11 11 11 11 11 11 10 10 10 10
14 14 14 14 14 14 14 14 14 13 13 13 13 13 13 12 12 12 12 12 12 12 12 12 12 12 12 12 12 12 12 12 11 11 11 11 11 11 11 10 10 10 10 9
13 13 13 13 13 13 13 13 13 13 13 12 12 12 12 12 12 12 12 12 12 12 12 12 12 12 12 11 12 12 12 11 11 11 11 11 11 10 10 10 10 10 10 9
12 13 13 13 13 13 13 12 12 12 12 12 12 12 12 12 12 12 12 11 11 11 11 11 11 11 11 11 11 11 11 11 11 11 11 11 10 10 10 10 10 10 9 9
12 12 12 12 12 12 12 12 12 12 12 12 12 12 12 12 11 12 11 11 11 11 11 11 11 11 11 11 11 11 11 11 11 11 11 10 10 10 10 10 10 10 9 9
12 12 12 12 12 12 12 12 12 12 12 11 11 11 11 11 11 11 11 11 11 11 11 11 11 11 11 11 11 11 11 10 10 10 10 10 10 10 10 10 10 9 9 9
12 12 12 12 12 12 12 12 12 12 12 12 11 11 11 11 11 11 11 10 10 10 10 10 10 10 10 10 10 10 10 10 10 10 10 10 10 10 10 10 9 9 9 9
11 11 11 11 12 12 12 12 12 12 12 11 11 11 11 11 11 11 10 10 10 10 10 10 10 10 10 10 10 10 10 10 10 10 10 10 9 9 9 9 9 9 8 8
Wind_Speed
10 6 8 10 11 11 12 11 11 8 7 5 3 4 5 5 7 8 9 9 9 9 8 8 8 7 6 6 5 5 4 4 3 3 2 2 2 2 2 2 2 2 1 1
11 10 10 11 12 12 12 11 11 10 8 4 1 3 5 6 6 7 8 8 8 8 8 8 8 7 6 5 5 5 4 4 3 3 3 2 3 3 3 2 2 2 2 2
12 11 11 14 13 13 12 10 10 11 7 3 3 4 5 6 5 5 6 7 7 7 7 7 7 7 6 5 4 4 4 3 3 3 3 3 3 3 3 2 2 2 2 2
10 10 15 8 5 8 10 9 7 7 5 4 3 3 4 4 4 4 5 6 6 6 6 6 7 7 6 6 6 5 4 3 3 3 3 3 3 3 2 2 2 2 2 2
11 14 13 8 6 7 9 8 5 5 4 2 1 4 5 3 2 4 5 5 6 6 6 6 7 7 7 6 6 5 4 3 3 3 3 3 3 3 3 2 2 2 2 2
11 13 14 7 6 5 7 9 3 3 3 2 3 6 3 1 1 3 4 5 5 5 6 6 6 7 7 6 5 5 4 4 3 3 3 3 2 3 3 3 3 3 3 2
13 12 9 3 3 6 10 4 1 2 2 3 3 3 0 2 2 3 4 5 5 5 5 6 6 7 7 6 6 5 5 5 4 4 4 3 3 2 3 3 3 3 3 3
12 13 9 2 4 5 1 3 2 2 2 2 1 1 3 3 3 4 4 5 5 5 5 6 6 6 6 5 4 5 5 5 4 4 3 3 3 3 3 3 4 4 3 2
7 5 2 2 1 1 2 3 3 2 2 1 1 2 3 3 3 3 3 4 4 5 6 6 6 6 5 5 5 5 5 5 5 5 4 3 3 4 4 3 2 2 2 2
5 4 2 2 1 2 3 3 4 3 2 2 2 2 3 3 2 3 3 3 3 5 6 6 5 5 5 5 5 5 6 5 5 5 4 4 3 3 3 2 2 2 2 1
7 5 4 4 3 4 4 3 3 2 2 3 4 4 3 3 3 2 2 2 3 4 6 6 5 5 5 5 5 5 5 5 5 5 5 4 4 3 2 2 1 0 1 1
6 5 5 4 4 5 4 3 3 2 1 2 3 3 3 2 2 2 2 2 3 5 6 6 6 5 5 5 5 6 5 5 4 4 4 4 5 5 7 6 6 6 5 3
6 6 7 6 6 6 5 4 3 3 2 2 3 3 3 3 3 2 3 4 4 5 6 6 6 5 5 4 5 5 5 5 4 4 4 4 5 5 5 4 5 5 4 4
5 5 6 6 6 5 4 4 3 2 2 3 3 4 4 3 3 3 4 4 4 5 5 5 5 5 4 4 5 5 4 4 4 4 4 4 4 4 4 5 5 4 4 5
5 5 6 5 5 5 4 4 3 3 2 3 3 4 4 3 3 3 3 3 4 6 6 6 5 5 4 5 5 4 4 4 3 4 4 4 4 4 4 4 4 4 4 4
5 5 5 5 5 5 5 5 4 4 3 3 3 3 3 3 4 4 3 3 5 6 6 5 5 5 4 5 5 4 4 4 3 4 4 4 4 4 4 4 4 4 4 3
5 5 5 6 6 6 6 5 5 4 4 4 4 4 4 4 4 4 4 4 6 6 6 5 5 5 5 5 5 4 4 5 5 4 4 4 4 4 4 4 4 4 3 3
6 6 7 7 6 5 5 5 5 5 5 5 5 6 6 6 6 5 5 6 7 7 6 6 5 5 5 5 4 3 4 4 4 4 4 4 3 4 4 3 4 3 3 4
6 5 5 5 5 5 5 5 4 4 4 4 5 6 6 6 6 6 6 7 7 7 5 5 5 5 5 5 4 4 4 4 4 4 4 5 4 3 3 3 3 3 3 3
4 4 4 3 3 4 5 5 5 4 4 5 6 6 6 6 6 6 6 5 4 4 6 5 6 5 5 5 3 4 4 5 5 5 4 4 4 4 3 3 3 3 2 2
2 1 1 2 2 4 5 5 5 5 5 6 7 7 6 6 6 6 6 5 5 5 5 5 4 4 4 3 4 4 4 4 4 4 4 4 3 3 3 3 3 2 2 2
0 1 2 3 3 4 4 5 5 6 7 6 7 6 6 6 5 4 3 3 4 4 4 4 4 4 3 3 4 4 4 5 4 4 4 3 3 3 3 3 3 3 3 2
2 2 3 4 4 5 5 4 6 6 6 6 6 5 5 4 3 3 3 3 4 4 3 3 4 5 2 4 3 4 4 4 4 4 4 4 4 3 3 4 3 3 3 3
3 4 4 4 5 5 5 5 5 5 5 5 4 4 4 3 3 2 3 5 4 3 2 4 6 5 5 4 4 4 4 4 3 3 3 3 3 3 3 3 3 3 3 3
4 4 5 5 5 4 5 5 6 5 5 4 4 4 3 2 2 2 3 4 5 4 3 5 6 5 5 4 4 3 3 3 3 3 3 3 3 3 3 3 3 3 3 3
4 4 4 4 3 3 3 3 4 4 3 3 3 2 2 3 3 3 3 4 5 4 3 3 4 5 4 4 4 3 3 3 4 4 3 3 3 3 3 3 4 3 3 3
4 4 3 3 3 2 2 2 2 2 2 2 2 2 2 2 2 3 3 3 3 3 3 3 3 3 3 3 3 3 3 3 3 3 3 3 3 3 4 4 3 3 3 3
Wind_Direction
243 236 223 220 218 216 229 247 251 246 253 268 233 201 180 166 163 167 171 175 176 171 168 168 166 167 168 165 162 164 168 168 170 168 163 168 163 148 139 138 128 107 83 68
228 226 231 235 227 224 229 237 245 253 257 282 260 182 178 173 169 174 177 176 173 172 170 171 171 169 166 165 163 165 171 174 172 161 154 157 154 141 134 132 117 102 81 68
225 216 229 234 229 227 226 232 241 248 261 275 240 201 191 182 177 177 178 173 173 173 174 174 171 168 166 159 153 157 164 168 161 155 154 157 156 148 145 143 129 121 112 90
227 215 233 228 211 223 227 232 245 254 270 271 258 219 182 172 175 176 173 169 173 176 177 174 167 160 158 153 157 160 161 164 161 164 163 160 158 156 153 149 142 135 121 101
227 227 229 214 205 216 222 229 246 257 270 274 238 181 171 138 170 175 173 167 167 174 176 169 165 159 155 160 162 163 163 167 168 166 166 166 167 167 161 156 149 137 115 101
226 235 232 213 190 216 228 225 216 254 265 244 204 224 193 132 162 157 156 155 157 162 162 159 159 160 157 159 161 165 166 161 159 157 165 172 175 172 161 158 150 136 115 108
226 232 234 204 175 197 223 225 41 280 267 230 220 279 161 156 138 138 146 147 147 149 150 149 151 155 156 159 167 167 159 153 152 151 156 158 160 157 151 150 140 128 121 110
223 231 225 127 182 217 283 4 333 299 278 239 221 108 122 128 129 133 136 145 147 144 141 143 147 150 154 159 159 154 153 151 148 147 148 146 155 153 151 155 149 139 132 123
228 232 67 126 150 14 341 320 315 307 312 241 203 164 143 133 128 130 131 141 147 145 143 143 147 149 153 155 154 153 151 145 142 140 137 138 146 149 152 158 158 154 152 140
236 228 228 225 296 328 329 322 310 302 286 226 202 183 164 150 142 138 132 139 150 156 154 151 152 152 152 152 157 158 155 149 147 146 144 137 142 143 146 149 158 162 152 140
231 234 236 234 278 305 313 312 310 298 262 215 195 192 185 176 167 162 156 165 172 170 162 159 154 152 154 155 160 157 156 158 155 151 144 137 122 92 114 97 70 104 136 146
242 245 254 262 284 294 296 301 300 288 261 214 197 188 187 185 179 185 177 183 182 171 161 157 156 157 155 158 160 160 162 164 163 158 153 152 142 121 64 65 78 66 46 43
271 274 278 278 282 284 285 294 287 264 230 214 202 191 186 191 196 189 185 194 183 167 159 159 158 155 155 161 165 167 167 165 167 161 161 162 157 152 136 105 88 84 80 74
267 266 268 272 274 272 271 277 274 252 218 204 196 188 184 190 192 185 191 185 162 153 156 157 157 152 157 161 164 167 169 160 168 161 161 159 159 159 155 152 145 130 113 113
264 267 263 264 261 258 249 237 230 223 207 197 189 189 192 191 187 177 167 155 151 150 155 158 157 154 159 163 161 167 167 157 162 158 160 155 157 159 158 156 149 140 134 128
266 261 253 246 247 250 243 228 217 208 195 185 176 174 178 163 150 147 152 157 160 156 158 159 156 152 156 163 160 165 160 131 164 170 163 157 157 159 158 157 155 156 158 148
266 252 247 245 245 243 240 230 218 205 194 189 178 171 165 160 155 155 155 156 153 152 156 156 154 152 156 165 166 166 160 153 172 188 174 166 164 164 163 166 168 165 158 133
274 265 254 247 242 233 225 220 210 203 198 192 186 183 178 175 174 167 157 149 144 144 146 149 153 157 158 161 166 160 160 163 172 173 167 166 165 166 164 165 166 167 151 146
282 269 260 248 233 219 209 206 198 188 184 186 183 181 181 173 164 160 155 147 146 146 140 137 142 153 148 146 159 165 163 162 163 161 158 153 168 164 159 161 163 165 162 162
289 278 260 245 215 194 185 177 168 162 161 163 158 155 153 152 151 149 146 145 142 133 135 136 147 149 148 147 181 166 160 163 163 160 161 170 169 167 174 174 171 171 169 172
283 266 211 197 168 155 153 148 145 140 136 139 140 140 140 142 146 149 154 146 133 132 138 146 156 151 148 149 194 175 170 171 173 172 174 179 178 177 178 174 167 178 187 190
74 142 133 138 135 126 124 130 134 132 130 133 130 130 133 140 144 144 145 136 133 132 157 162 157 122 123 190 190 182 180 181 183 184 183 183 186 188 191 188 191 198 204 212
100 110 115 119 119 118 115 117 124 128 130 130 132 137 139 142 153 156 151 138 144 146 166 152 116 116 165 209 200 196 189 188 191 192 192 194 196 199 201 204 208 211 218 222
98 103 107 111 111 112 113 112 114 118 123 125 132 140 147 149 151 154 134 127 136 156 165 123 129 157 210 208 205 199 191 194 197 196 198 199 199 203 205 210 214 210 212 222
90 95 101 109 114 114 113 118 120 119 123 124 127 133 145 145 147 135 131 144 148 169 173 153 164 190 207 203 197 195 195 194 200 208 203 202 207 209 214 221 224 218 219 221
81 84 85 89 93 103 116 124 126 129 128 119 114 123 126 130 134 140 154 166 168 176 190 178 179 198 203 199 194 196 198 192 198 211 213 212 214 222 230 231 228 229 228 223
79 82 90 91 92 96 107 122 126 131 134 133 131 136 141 141 150 162 168 173 175 181 192 196 197 199 197 197 194 195 202 210 217 218 214 215 219 224 227 227 230 230 229 227
Height
1489 1487 1488 1491 1493 1495 1496 1494 1496 1495 1495 1494 1495 1500 1504 1507 1510 1513 1516 1519 1521 1523 1525 1527 1529 1530 1532 1533 1533 1534 1534 1535 1535 1534 1534 1534 1534 1534 1534 1534 1534 1534 1534 1534
1494 1490 1490 1491 1490 1492 1493 1493 1493 1493 1494 1492 1496 1500 1503 1506 1509 1512 1514 1517 1519 1521 1523 1525 1527 1529 1530 1531 1532 1532 1533 1533 1533 1533 1533 1533 1533 1533 1533 1533 1533 1533 1533 1532
1495 1491 1493 1496 1489 1489 1491 1490 1491 1494 1493 1493 1496 1499 1502 1505 1507 1510 1512 1515 1517 1518 1520 1522 1524 1526 1528 1529 1530 1531 1532 1532 1532 1532 1532 1532 1532 1532 1532 1532 1532 1532 1532 1531
1492 1498 1509 1489 1483 1485 1488 1489 1490 1491 1492 1494 1497 1499 1502 1505 1507 1509 1511 1512 1514 1517 1519 1520 1522 1523 1525 1526 1528 1529 1530 1530 1530 1530 1531 1531 1531 1531 1531 1531 1531 1531 1531 1530
1492 1496 1493 1488 1485 1486 1488 1491 1491 1491 1493 1495 1497 1498 1501 1504 1505 1507 1509 1510 1512 1514 1517 1518 1520 1521 1522 1524 1525 1526 1527 1528 1529 1529 1529 1529 1529 1529 1530 1530 1530 1530 1529 1529
1493 1497 1497 1486 1483 1486 1489 1492 1491 1492 1493 1495 1496 1494 1497 1502 1504 1505 1507 1508 1510 1512 1514 1515 1517 1519 1521 1521 1523 1524 1525 1525 1526 1526 1527 1527 1528 1528 1528 1528 1528 1529 1528 1528
1492 1493 1484 1481 1484 1487 1495 1492 1492 1493 1494 1495 1496 1496 1499 1501 1503 1504 1505 1507 1509 1510 1512 1513 1515 1517 1518 1519 1520 1522 1523 1523 1523 1523 1524 1525 1525 1526 1526 1526 1527 1527 1527 1527
1489 1492 1489 1484 1485 1487 1490 1492 1492 1493 1494 1495 1497 1497 1498 1500 1501 1502 1504 1506 1507 1508 1510 1512 1513 1515 1516 1517 1518 1520 1521 1521 1521 1521 1522 1523 1523 1524 1524 1525 1525 1526 1526 1526
1483 1485 1486 1487 1489 1491 1492 1492 1492 1492 1493 1494 1495 1496 1497 1499 1500 1502 1503 1505 1506 1508 1509 1510 1512 1513 1514 1515 1516 1517 1518 1519 1519 1520 1520 1521 1522 1523 1523 1524 1525 1525 1526 1526
1486 1485 1487 1489 1490 1491 1491 1491 1491 1492 1492 1493 1494 1495 1497 1498 1499 1501 1502 1504 1505 1507 1508 1509 1510 1511 1512 1513 1514 1515 1516 1517 1518 1519 1519 1520 1520 1522 1523 1523 1524 1524 1525 1525
1485 1487 1488 1489 1490 1491 1491 1490 1490 1490 1491 1491 1492 1493 1495 1496 1497 1499 1501 1502 1503 1504 1506 1507 1508 1509 1510 1511 1512 1513 1514 1516 1517 1517 1517 1518 1519 1520 1521 1522 1522 1523 1523 1524
1483 1486 1487 1488 1489 1489 1489 1489 1489 1489 1489 1490 1491 1492 1493 1494 1496 1497 1498 1500 1501 1502 1503 1505 1506 1508 1509 1509 1510 1511 1513 1514 1515 1516 1517 1517 1518 1519 1519 1520 1520 1521 1521 1521
1486 1486 1486 1487 1487 1487 1487 1487 1487 1487 1487 1488 1489 1490 1491 1492 1493 1495 1496 1498 1499 1500 1501 1503 1505 1506 1507 1508 1509 1510 1511 1512 1514 1515 1516 1516 1517 1518 1518 1518 1519 1519 1520 1520
1484 1485 1484 1485 1485 1485 1485 1485 1486 1486 1486 1487 1488 1489 1489 1490 1491 1492 1494 1495 1496 1497 1499 1501 1503 1504 1505 1506 1507 1508 1510 1511 1511 1512 1514 1515 1516 1516 1517 1517 1518 1518 1519 1519
1482 1482 1482 1482 1482 1482 1483 1483 1484 1484 1484 1485 1486 1487 1488 1488 1489 1490 1492 1493 1494 1495 1498 1500 1501 1502 1503 1504 1505 1507 1508 1509 1510 1511 1512 1513 1514 1515 1516 1517 1517 1517 1518 1518
1479 1479 1479 1479 1479 1479 1480 1481 1481 1482 1482 1483 1484 1485 1486 1487 1487 1489 1490 1491 1493 1494 1496 1498 1499 1500 1501 1502 1503 1505 1506 1507 1508 1510 1511 1511 1512 1513 1514 1515 1516 1516 1516 1517
1475 1474 1474 1475 1475 1476 1476 1477 1479 1479 1480 1481 1482 1483 1484 1486 1487 1487 1488 1489 1490 1492 1494 1496 1497 1498 1500 1501 1502 1504 1504 1505 1506 1508 1510 1511 1511 1512 1513 1513 1514 1515 1515 1515
1472 1471 1471 1471 1471 1472 1473 1474 1476 1477 1478 1479 1480 1482 1483 1484 1485 1486 1486 1487 1488 1490 1492 1494 1496 1497 1498 1499 1500 1502 1503 1504 1506 1507 1508 1509 1509 1510 1511 1512 1513 1513 1513 1513
1468 1467 1468 1468 1468 1469 1471 1472 1473 1474 1475 1476 1477 1479 1481 1482 1483 1484 1485 1486 1487 1489 1491 1492 1494 1496 1497 1498 1499 1500 1502 1503 1505 1506 1506 1507 1508 1509 1510 1511 1511 1511 1512 1512
1466 1465 1465 1465 1466 1467 1468 1469 1470 1471 1472 1473 1475 1477 1479 1481 1482 1483 1484 1486 1487 1488 1490 1491 1493 1495 1496 1497 1498 1500 1501 1503 1504 1504 1506 1506 1507 1508 1509 1509 1510 1510 1510 1511
1465 1464 1464 1465 1465 1466 1467 1468 1469 1470 1471 1473 1474 1476 1478 1480 1482 1483 1484 1486 1487 1488 1489 1491 1492 1494 1495 1496 1497 1499 1500 1502 1503 1504 1505 1505 1506 1507 1508 1508 1508 1509 1509 1509
1465 1464 1464 1465 1465 1466 1467 1468 1469 1470 1472 1473 1475 1477 1479 1481 1482 1483 1484 1486 1486 1487 1489 1491 1492 1492 1494 1495 1497 1498 1499 1500 1501 1502 1503 1503 1504 1505 1506 1506 1507 1507 1507 1507
1465 1465 1465 1466 1466 1467 1468 1469 1470 1472 1473 1475 1476 1478 1480 1481 1482 1483 1485 1486 1487 1487 1489 1490 1491 1491 1493 1495 1496 1497 1498 1499 1499 1500 1501 1501 1502 1503 1504 1504 1505 1505 1505 1505
1466 1466 1467 1467 1468 1469 1470 1471 1472 1473 1475 1476 1478 1479 1481 1481 1482 1483 1484 1485 1486 1487 1488 1489 1489 1491 1492 1494 1495 1495 1496 1497 1497 1498 1499 1500 1500 1501 1501 1502 1502 1503 1503 1503
1467 1468 1468 1469 1470 1470 1471 1473 1474 1475 1477 1478 1479 1480 1481 1482 1482 1483 1484 1485 1485 1487 1488 1488 1488 1489 1491 1492 1493 1493 1494 1495 1496 1496 1497 1497 1498 1498 1499 1499 1500 1500 1500 1500
1470 1470 1470 1471 1472 1473 1474 1475 1476 1477 1478 1479 1480 1481 1481 1482 1482 1482 1483 1484 1485 1486 1487 1487 1488 1488 1489 1490 1491 1491 1492 1493 1493 1494 1495 1495 1495 1496 1496 1496 1496 1497 1497 1496
1472 1472 1473 1473 1474 1475 1476 1477 1478 1479 1479 1480 1480 1481 1482 1482 1482 1483 1484 1485 1485 1485 1486 1487 1487 1488 1488 1488 1489 1489 1490 1491 1491 1492 1492 1493 1493 1493 1493 1493 1493 1493 1493 1493